Погода в Вагае

Россия / Тюменская область     56°28′25″N   67°18′30″E
темп.,
°C
ветер,
м/с
пор.,
м/с
влажн.,
%
обл.,
%
осадки,
мм/ч
давл.,
гПа
погр.,
м
4 августа, ср
ср423:00+16сз34822 0.2 101159
02:00+15сз34880 0.0 101261
05:00+13ссз359334 0.0 101371
08:00+18ссв237797 0.0 1014334
11:00+22с335873 0.0 10141109
14:00+25ссз344714 0.0 10131838
17:00+25ссз344425 0.0 10131892
20:00+20с226242 0.0 101311
5 августа, чт
чт523:00+17вюв117160 0.0 101311
02:00+17ю227187 0.0 101312
05:00+17ююз1175100 0.1 101211
08:00+20ююз2370100 0.2 1012195
11:00+19юз3484100 1.9 1012253
14:00+22юв2269100 0.0 1012595
17:00+24ю236392 0.1 1011751
20:00+21юв337896 0.0 101049
6 августа, пт
пт623:00+17юв48915 0.0 1010124
02:00+16ююв379358 0.1 1010116
05:00+16ююв399498 1.0 1009155
08:00+18вюв4892100 3.8 1009250
11:00+20юв4988100 9.1 1008381
14:00+25ю3665100 0.6 1008816
17:00+23всв118094 2.0 1008110
20:00+18в489622 3.3 1009212
7 августа, сб
сб723:00+16ю3496100 6.2 100977
02:00+16зсз3496100 0.3 100889
05:00+16ссз4899100 3.4 1009376
08:00+17сз5793100 0.8 1010452
11:00+18сз5687100 0.9 1010720
14:00+17сз5790100 0.1 1011653
17:00+20ссз477118 0.1 1012958
20:00+16сз368910 0.9 1012111
8 августа, вс
вс823:00+14зсз36969 1.0 1012128
02:00+14зсз4995100 0.0 1012356
05:00+14сз41093100 0.0 1013381
08:00+15сз598593 0.0 1013534
11:00+17сз686697 0.0 1013937
14:00+20сз675329 0.0 10131551
17:00+20ссз565892 0.0 10131500
20:00+17сз4871100 0.0 1014401